KA9UAJ Weather Reports


Display with metric or nautical units.
time (UTC)temp
F
wind
direction
speed
MPH
gust
MPH
rain 1hr
in
rain 24hr
in
rain mn
in
humidity
%
barometer
mb
20260906110007 68 46 0.0 1.0 0.00 0.00 0.00 87 1018.5
20260906104505 69 46 0.0 1.0 0.00 0.00 0.00 86 1018.3
20260906103013 69 46 0.0 0.0 0.00 0.00 0.00 86 1017.7
20260906101504 69 46 0.0 2.0 0.00 0.00 0.00 86 1017.8
20260906100012 70 33 0.0 3.0 0.00 0.00 0.00 87 1017.8
20260906094504 70 18 0.0 1.0 0.00 0.00 0.00 87 1017.7
20260906093017 70 18 0.0 2.0 0.00 0.00 0.00 87 1017.7
20260906091520 70 18 0.0 0.0 0.00 0.00 0.00 87 1017.7
20260906090008 70 18 0.0 0.0 0.00 0.00 0.00 87 1017.6
20260906084506 70 18 0.0 0.0 0.00 0.00 0.00 87 1017.7
20260906083006 70 18 0.0 0.0 0.00 0.00 0.00 87 1017.5
20260906081505 70 18 0.0 0.0 0.00 0.00 0.00 87 1017.5
20260906080004 70 18 0.0 0.0 0.00 0.00 0.00 87 1017.4
20260906074520 70 18 0.0 0.0 0.00 0.00 0.00 87 1017.4
20260906073017 70 18 0.0 0.0 0.00 0.00 0.00 87 1017.5
20260906071512 70 18 0.0 0.0 0.00 0.00 0.00 87 1017.6
20260906070018 70 18 0.0 0.0 0.00 0.00 0.00 87 1017.7
20260906064504 70 18 0.0 0.0 0.00 0.00 0.00 87 1017.7
20260906063006 70 18 0.0 0.0 0.00 0.00 0.00 87 1017.7
20260906061509 70 18 0.0 0.0 0.00 0.00 0.00 87 1017.7
20260906060004 70 18 0.0 0.0 0.00 0.00 0.00 87 1017.8
20260906054547 70 18 0.0 0.0 0.00 0.00 0.00 87 1017.9
20260906053019 70 18 0.0 2.0 0.00 0.00 0.00 87 1017.7
20260906051519 70 14 0.0 2.0 0.00 0.00 0.00 87 1017.5
20260906050024 71 18 0.0 2.0 0.00 0.00 0.00 87 1017.4
20260906044509 71 32 1.0 5.0 0.00 0.00 0.00 87 1017.2
20260906043007 71 33 0.0 7.0 0.00 0.00 0.00 86 1017.0
20260906041506 71 339 0.0 6.0 0.00 0.00 0.00 86 1016.8
20260906040040 71 14 3.0 8.0 0.00 0.00 0.00 86 1016.7
20260906034526 71 21 3.0 6.0 0.00 0.01 0.00 86 1016.6
20260906033024 71 2 0.0 7.0 0.00 0.02 0.00 86 1016.6
20260906031552 71 37 2.0 6.0 0.00 0.02 0.00 85 1016.6
20260906030015 71 28 2.0 8.0 0.00 0.02 0.00 85 1016.7
20260906024534 72 354 3.0 10.0 0.00 0.02 0.00 85 1016.5
20260906023010 72 344 2.0 11.0 0.00 0.02 0.00 84 1016.7
20260906021532 72 1 3.0 8.0 0.00 0.02 0.00 84 1016.7
20260906020005 72 352 2.0 8.0 0.00 0.02 0.00 84 1017.0
20260906014512 72 45 2.0 10.0 0.00 0.02 0.00 84 1016.9
20260906013004 72 28 3.0 7.0 0.00 0.02 0.00 84 1016.9
20260906011503 72 4 2.0 7.0 0.00 0.02 0.00 84 1016.8
20260906010039 72 22 4.0 9.0 0.00 0.02 0.00 84 1016.5
20260906004520 72 36 2.0 10.0 0.00 0.02 0.00 84 1016.2
20260906003011 72 312 3.0 13.0 0.00 0.02 0.00 83 1016.2
20260906001510 72 14 5.0 15.0 0.00 0.02 0.00 83 1016.3
20260906000012 72 41 1.0 10.0 0.00 0.02 0.00 83 1016.4
20260905234506 72 332 4.0 10.0 0.00 0.02 0.00 83 1016.4
20260905233000 72 18 3.0 14.0 0.00 0.02 0.00 82 1016.3
20260905231503 73 48 2.0 11.0 0.00 0.02 0.00 81 1016.3
20260905230031 73 74 2.0 12.0 0.00 0.02 0.00 81 1016.0
20260905224519 74 58 4.0 11.0 0.00 0.02 0.00 80 1016.2
20260905223016 75 66 1.0 8.0 0.00 0.02 0.00 79 1016.1
20260905221510 76 77 0.0 9.0 0.00 0.02 0.00 79 1016.0
20260905220007 77 36 1.0 10.0 0.00 0.02 0.00 78 1016.0
20260905214506 77 353 3.0 10.0 0.00 0.02 0.00 77 1015.7
20260905213004 78 25 3.0 8.0 0.00 0.02 0.00 76 1015.3
20260905211552 79 48 3.0 12.0 0.00 0.02 0.00 75 1015.4
20260905210024 80 360 4.0 12.0 0.00 0.02 0.00 73 1015.4
20260905204516 80 324 2.0 9.0 0.00 0.02 0.00 74 1015.6
20260905203015 80 23 4.0 12.0 0.00 0.02 0.00 74 1015.4
20260905201510 80 39 4.0 9.0 0.00 0.02 0.00 75 1015.4
20260905200009 80 299 0.0 8.0 0.00 0.02 0.00 74 1015.6
20260905194508 80 358 3.0 8.0 0.00 0.02 0.00 74 1015.8
20260905193029 80 41 4.0 11.0 0.00 0.02 0.00 73 1015.8
20260905191528 80 29 2.0 9.0 0.00 0.02 0.00 74 1015.8
20260905190027 80 45 1.0 10.0 0.00 0.02 0.00 74 1015.7
20260905184523 79 338 1.0 13.0 0.00 0.02 0.00 75 1016.0
20260905183029 79 8 4.0 13.0 0.00 0.02 0.00 75 1015.8
20260905181516 79 63 5.0 9.0 0.00 0.02 0.00 75 1016.1
20260905180010 78 10 2.0 10.0 0.00 0.02 0.00 77 1016.0
20260905174505 78 357 2.0 8.0 0.00 0.02 0.00 78 1015.8
20260905173051 78 18 4.0 8.0 0.00 0.02 0.00 78 1015.8
20260905171531 78 16 3.0 10.0 0.00 0.02 0.00 77 1015.8
20260905170024 78 47 2.0 10.0 0.00 0.02 0.00 78 1015.9
20260905164526 78 341 3.0 10.0 0.00 0.02 0.00 78 1015.9
20260905163022 78 281 3.0 9.0 0.00 0.02 0.00 78 1015.9
20260905161518 78 301 2.0 9.0 0.00 0.02 0.00 79 1016.1
20260905160015 78 18 1.0 9.0 0.00 0.02 0.00 79 1015.8
20260905154535 77 335 2.0 8.0 0.00 0.02 0.00 81 1015.8
20260905153007 77 16 1.0 6.0 0.00 0.02 0.00 83 1015.5
20260905151506 76 9 1.0 8.0 0.00 0.02 0.00 86 1015.6
20260905150007 75 7 0.0 9.0 0.00 0.02 0.00 87 1015.5
20260905144505 75 18 3.0 8.0 0.00 0.02 0.00 89 1015.3
20260905143004 74 54 2.0 7.0 0.00 0.02 0.00 90 1015.2
20260905141515 74 7 2.0 8.0 0.00 0.02 0.00 90 1015.0
20260905140003 74 357 4.0 9.0 0.00 0.02 0.00 91 1014.9
20260905134514 74 44 3.0 7.0 0.00 0.02 0.00 91 1015.0
20260905133012 74 284 1.0 7.0 0.00 0.02 0.00 91 1015.2
20260905131514 73 341 2.0 7.0 0.00 0.02 0.00 91 1014.7
20260905130009 73 71 2.0 5.0 0.00 0.02 0.00 91 1014.6
20260905124510 73 47 0.0 5.0 0.00 0.02 0.00 91 1014.4
20260905123006 73 43 0.0 4.0 0.00 0.02 0.00 91 1014.0
20260905121503 73 16 1.0 4.0 0.00 0.02 0.00 91 1013.8
20260905120026 72 10 1.0 5.0 0.00 0.02 0.00 91 1013.8
20260905114524 72 51 0.0 4.0 0.00 0.02 0.00 90 1013.5
20260905113019 72 346 1.0 7.0 0.00 0.02 0.00 90 1013.4
20260905111512 72 52 0.0 5.0 0.00 0.02 0.00 90 1013.1